Location: Jefferson
(30.9666°N, 81.7901°W)
Time: 18:57:55
(UTC+00:00)

ACS3 Solar Sail - Pass Details

Date: 28 September 2024
Orbit: 961 x 1035 km, 97.4° (Epoch: 08 October)

Event Time Altitude Azimuth Distance (km) Brightness Sun altitude
Exits shadow 00:29:37 21° 72° (ENE) 2,159 3.1 -16.5°
Maximum altitude 00:30:01 21° 67° (ENE) 2,153 3.1 -16.5°
Drops below altitude 10° 00:34:33 10° 22° (NNE) 2,838 4.1 -17.5°
Sets 00:37:42 0° 7° (N) 3,788 4.9 -18.2°
